EHI
0 0 0 0 0 0 0 0 0 0 0 0 0 0 0 0 0 0 0 0 0 0 0 0 0 0 0 0 0 0 0 0 0 0 0 0 0 0 0 0 0 0 0
0 0 0 0 0 0 0 0 0 0 0 0 0 0 0 0 0 0 0 0 0 0 0 0 0 0 0 0 0 0 0 0 0 0 0 0 0 0 0 0 0 0 0
0 0 0 0 0 0 0 0 0 0 0 0 0 0 0 0 0 0 0 0 0 0 0 0 0 0 0 0 0 0 0 0 0 0 0 0 0 0 0 0 0 0 0
0 0 0 0 0 0 0 0 0 0 0 0 0 0 0 0 0 0 0 0 0 0 0 0 0 0 0 0 0 0 0 0 0 0 0 0 0 0 0 0 0 0 0
0 0 0 0 0 0 0 0 0 0 0 0 0 0 0 0 0 0 0 0 0 0 0 0 0 0 0 0 0 0 0 0 0 0 0 0 0 0 0 0 0 0 0
0 0 0 0 0 0 0 0 0 0 0 0 0 0 0 0 0 0 0 0 0 0 0 0 0 0 0 0 0 0 0 0 0 0 0 0 0 0 0 0 0 0 0
0 0 0 0 0 0 0 0 0 0 0 0 0 0 0 0 0 0 0 0 0 0 0 0 0 0 0 0 0 0 0 0 0 0 0 0 0 0 0 0 0 0 0
0 0 0 0 0 0 0 0 0 0 0 0 0 0 0 0 0 0 0 0 0 0 0 0 0 0 0 0 0 0 0 0 0 0 0 0 0 0 0 0 0 0 0
0 0 0 0 0 0 0 0 0 0 0 0 0 0 0 0 0 0 0 0 0 0 0 0 0 0 0 0 0 0 0 0 0 0 0 0 0 0 0 0 0 0 0
0 0 0 0 0 0 0 0 0 0 0 0 0 0 0 0 0 0 0 0 0 0 0 0 0 0 0 0 0 0 0 0 0 0 0 0 0 0 0 0 0 0 0
0 0 0 0 0 0 0 0 0 0 0 0 0 0 0 0 0 0 0 0 0 0 0 0 0 0 0 0 0 0 0 0 0 0 0 0 0 0 0 0 0 0 0
0 0 0 0 0 0 0 0 0 0 0 0 0 0 0 0 0 0 0 0 0 0 0 0 0 0 0 0 0 0 0 0 0 0 0 0 0 0 0 0 0 0 0
0 0 0 0 0 0 0 0 0 0 0 0 0 0 0 0 0 0 0 0 0 0 0 0 0 0 0 0 0 0 0 0 0 0 0 0 0 0 0 0 0 0 0
0 0 0 0 0 0 0 0 0 0 0 0 0 0 0 0 0 0 0 0 0 0 0 0 0 0 0 0 0 0 0 0 0 0 0 0 0 0 0 0 0 0 0
0 0 0 0 0 0 0 0 0 0 0 0 0 0 0 0 0 0 0 0 0 0 0 0 0 0 0 0 0 0 0 0 0 0 0 0 0 0 0 0 0 0 0
0 0 0 0 0 0 0 0 0 0 0 0 0 0 0 0 0 0 0 0 0 0 0 0 0 0 0 0 0 0 0 0 0 0 0 0 0 0 0 0 0 0 0
0 0 0 0 0 0 0 0 0 0 0 0 0 0 0 0 0 0 0 0 0 0 0 0 0 0 0 0 0 0 0 0 0 0 0 0 0 0 0 0 0 0 0
0 0 0 0 0 0 0 0 0 0 0 0 0 0 0 0 0 0 0 0 0 0 0 0 0 0 0 0 0 0 0 0 0 0 0 0 0 0 0 0 0 0 0
0 0 0 0 0 0 0 0 0 0 0 0 0 0 0 0 0 0 0 0 0 0 0 0 0 0 0 0 0 0 0 0 0 0 0 0 0 0 0 0 0 0 0
0 0 0 0 0 0 0 0 0 0 0 0 0 0 0 0 0 0 0 0 0 0 0 0 0 0 0 0 0 0 0 0 0 0 0 0 0 0 0 0 0 0 0
0 0 0 0 0 0 0 0 0 0 0 0 0 0 0 0 0 0 0 0 0 0 0 0 0 0 0 0 0 0 0 0 0 0 0 0 0 0 0 0 0 0 0
0 0 0 0 0 0 0 0 0 0 0 0 0 0 0 0 0 0 0 0 0 0 0 0 0 0 0 0 0 0 0 0 0 0 0 0 0 0 0 0 0 0 0
0 0 0 0 0 0 0 0 0 0 0 0 0 0 0 0 0 0 0 0 0 0 0 0 0 0 0 0 0 0 0 0 0 0 0 0 0 0 0 0 0 0 0
0 0 0 0 0 0 0 0 0 0 0 0 0 0 0 0 0 0 0 0 0 0 0 0 0 0 0 0 0 0 0 0 0 0 0 0 0 0 0 0 0 0 0
0 0 0 0 0 0 0 0 0 0 0 0 0 0 0 0 0 0 0 0 0 0 0 0 0 0 0 0 0 0 0 0 0 0 0 0 0 0 0 0 0 0 0
0 0 0 0 0 0 0 0 0 0 0 0 0 0 0 0 0 0 0 0 0 0 0 0 0 0 0 0 0 0 0 0 0 0 0 0 0 0 0 0 0 0 0
Wind_Speed
2 2 2 3 3 4 5 6 6 6 7 8 8 8 8 8 7 7 6 7 6 6 5 5 5 4 3 3 3 3 4 4 5 2 1 1 2 2 2 1 1 1 2
2 1 2 2 3 3 4 5 6 6 7 7 7 8 7 7 7 7 7 7 7 6 6 5 5 4 5 3 3 4 3 4 4 4 2 2 2 2 2 1 1 1 2
2 1 2 2 2 3 3 4 5 6 6 7 7 7 8 7 7 6 6 6 6 5 5 6 5 5 5 4 4 3 3 3 3 3 2 1 1 2 2 1 1 0 1
1 1 1 1 2 3 3 4 5 6 7 7 7 7 7 7 7 6 6 6 5 5 5 4 4 5 5 5 4 4 3 3 3 3 2 2 2 2 2 2 2 2 1
2 1 0 0 1 2 3 4 5 5 6 6 7 7 7 6 6 7 6 6 6 6 5 4 4 3 3 3 3 3 3 3 3 3 3 2 3 3 3 3 2 2 1
2 1 0 1 2 3 3 4 5 5 6 6 7 7 7 5 7 9 7 6 6 6 5 5 4 5 5 5 4 2 2 3 4 3 3 4 4 4 3 3 2 2 2
3 2 1 1 2 2 3 4 5 6 6 6 6 7 7 7 10 11 9 6 6 6 6 5 4 4 5 5 5 4 2 1 2 4 4 4 4 4 4 4 3 3 1
3 2 2 2 3 3 4 5 5 5 6 6 6 7 7 8 11 12 11 7 5 6 6 6 6 6 6 6 5 4 3 2 1 3 3 2 2 2 3 3 3 2 2
3 3 3 3 4 4 5 5 5 5 6 6 6 7 7 8 11 12 11 6 5 6 6 6 7 7 9 9 6 5 4 3 2 1 1 2 2 2 3 3 4 3 2
5 5 4 4 5 5 5 5 4 5 6 6 6 7 8 7 11 13 13 6 6 6 6 6 8 8 10 11 7 7 6 5 4 4 4 4 4 4 3 2 3 3 2
6 5 5 5 5 5 5 4 4 5 5 6 6 6 7 8 11 15 15 7 7 6 6 6 6 12 12 13 10 6 6 5 5 4 4 3 3 3 2 2 1 2 2
6 5 5 5 4 4 5 4 5 6 6 7 7 7 6 7 10 13 17 14 10 7 6 6 6 12 13 13 10 8 9 8 4 4 4 4 4 3 3 2 2 1 1
6 6 5 5 4 4 5 5 5 5 5 6 6 6 6 6 7 14 16 17 16 9 6 8 9 12 12 10 12 12 10 7 5 5 5 4 3 3 3 3 3 2 2
7 6 5 5 4 4 4 4 5 5 6 6 6 7 6 6 6 7 8 10 14 11 7 9 12 12 10 8 9 9 8 7 6 6 5 4 4 4 4 4 4 4 3
7 6 6 5 5 5 5 5 6 7 7 7 6 6 6 7 9 13 9 8 8 8 7 6 6 6 7 7 7 7 7 7 7 6 5 5 5 5 5 4 4 4 4
7 6 5 5 5 5 5 5 8 10 11 13 11 9 8 9 10 14 16 15 14 14 10 7 8 8 8 8 8 8 8 8 8 7 6 6 6 6 6 5 5 5 5
7 7 6 5 5 5 5 5 6 7 10 13 14 14 13 12 13 13 15 16 16 16 10 8 8 8 8 8 8 8 8 8 7 7 7 7 6 6 6 6 6 6 6
8 7 7 6 5 5 6 6 5 6 5 5 8 13 14 13 13 14 14 12 10 11 8 8 8 8 8 8 8 8 8 7 7 8 7 7 7 7 7 7 7 8 7
7 6 5 6 6 6 6 6 6 6 6 5 4 5 9 11 12 13 13 8 7 8 8 8 7 7 8 8 8 8 8 8 8 8 8 8 8 8 8 8 7 10 9
7 8 8 6 6 6 6 6 6 6 6 5 5 5 3 4 4 5 7 6 7 7 7 8 7 7 7 7 7 7 7 8 8 8 8 8 8 8 9 9 8 8 8
6 7 8 7 6 6 6 6 6 6 5 5 5 5 7 5 5 5 5 6 6 7 7 7 7 7 7 6 7 8 9 8 8 8 8 8 8 8 8 8 8 8 7
6 6 6 6 6 6 6 6 6 6 6 6 5 5 8 5 5 5 5 5 6 5 5 6 6 6 7 7 7 8 8 8 8 8 8 8 8 8 8 8 8 8 8
6 6 6 6 6 8 8 6 6 6 6 6 5 4 4 4 5 5 5 4 4 4 5 5 5 5 5 6 6 7 7 8 8 8 8 8 8 8 8 8 10 9 9
6 7 7 7 6 6 6 6 6 6 6 6 5 5 4 4 4 4 4 3 3 3 4 4 5 6 7 6 5 5 5 5 6 7 9 8 8 7 7 8 8 10 9
6 7 7 7 6 6 6 6 6 6 5 5 4 4 4 4 3 3 3 2 2 3 3 3 3 4 6 6 5 5 7 9 8 6 7 7 8 8 8 8 8 8 8
7 7 7 6 6 6 6 6 6 5 5 4 4 4 3 3 3 2 2 2 1 2 2 2 3 3 4 4 5 6 8 10 11 11 7 6 7 7 8 7 9 8 8
Wind_Direction
102 131 154 162 167 175 180 181 175 170 171 172 171 166 167 167 168 169 172 170 175 174 179 191 193 191 196 199 208 219 226 235 251 248 184 177 196 193 164 118 72 47 64
77 103 120 137 154 165 168 168 166 164 166 167 165 163 164 166 170 172 169 175 179 180 182 188 191 186 195 197 206 218 225 232 247 250 207 196 213 199 176 150 93 54 49
70 105 126 142 156 163 163 161 160 160 160 162 163 163 163 165 167 170 170 174 179 182 184 190 191 193 197 197 204 212 215 222 236 245 217 190 198 182 173 167 164 127 60
38 87 133 154 167 168 167 165 164 165 165 165 166 164 163 163 164 165 167 169 171 174 180 188 193 200 203 197 201 211 211 217 220 227 213 200 201 184 194 195 198 190 171
1 359 22 145 157 165 168 168 167 168 168 166 163 163 165 167 170 169 169 172 174 175 179 184 187 188 196 196 202 206 208 218 218 218 214 202 201 196 205 192 201 178 178
336 323 325 197 180 179 176 174 173 172 171 170 172 171 172 176 172 176 175 177 180 183 181 180 175 180 181 181 185 200 228 234 226 218 220 220 216 209 189 184 176 189 202
326 312 278 231 214 200 187 186 186 182 180 182 183 183 185 181 180 183 185 180 181 182 181 182 182 180 178 172 160 156 163 210 264 249 239 232 219 198 185 187 191 210 195
317 303 278 247 231 215 206 204 199 192 191 192 193 194 194 188 188 187 181 184 184 185 188 192 192 187 185 183 179 179 180 175 219 244 254 250 237 190 190 189 171 153 125
309 295 275 252 238 226 220 214 206 201 202 201 197 197 199 196 194 191 183 184 189 193 195 201 200 197 187 188 186 187 191 176 136 121 82 98 120 144 159 152 159 178 192
311 297 279 257 243 236 231 224 218 212 210 204 204 204 204 204 199 197 191 193 195 194 196 201 208 207 193 193 197 196 203 190 173 159 147 134 138 141 160 198 187 195 197
309 295 281 264 252 247 239 227 221 217 212 210 210 212 212 212 205 204 200 202 200 197 198 201 202 203 205 204 206 210 203 186 184 185 181 172 168 160 161 160 173 195 200
307 295 285 273 260 246 238 229 223 219 216 214 214 216 215 213 214 212 210 211 206 204 205 205 200 199 206 207 207 202 192 186 188 192 198 197 192 183 164 148 128 102 67
308 300 293 283 265 247 235 229 223 220 222 219 215 217 216 209 214 219 218 216 213 211 208 203 198 199 204 210 213 202 195 195 193 201 206 203 191 170 153 147 144 137 130
306 303 296 285 275 260 246 233 229 225 226 225 222 222 217 210 209 208 212 216 215 214 209 205 203 204 205 206 204 204 203 201 201 209 206 192 170 168 183 183 184 181 189
303 299 293 281 272 265 254 244 239 238 235 233 230 226 219 220 217 206 199 203 203 200 185 183 190 192 199 200 201 203 201 199 207 209 202 193 189 189 191 188 191 191 205
302 299 294 289 282 274 269 265 248 248 251 248 245 238 235 235 226 216 215 212 207 198 188 192 198 201 204 203 201 201 203 205 205 202 202 202 199 197 193 187 193 203 211
295 295 292 287 283 280 275 272 275 264 255 252 247 244 240 237 231 222 219 215 210 200 202 204 205 205 206 205 204 204 205 204 199 200 202 201 199 199 198 197 199 206 213
293 289 286 284 282 279 277 274 272 272 272 265 250 245 244 242 234 224 218 209 208 204 208 208 207 206 205 205 205 206 205 199 197 202 201 200 199 200 202 205 204 207 210
292 289 289 287 282 278 276 274 270 268 267 269 266 253 244 245 239 229 216 208 203 205 206 211 210 207 205 204 204 203 201 200 197 197 201 200 199 200 206 208 208 208 210
286 285 287 287 283 279 276 273 271 269 266 264 260 258 245 233 230 221 215 209 209 210 207 208 208 206 204 203 201 199 200 202 199 201 202 200 199 201 206 206 206 206 208
289 288 287 285 281 280 278 275 272 269 268 266 263 258 251 241 234 226 220 216 214 212 209 208 207 205 203 199 197 199 201 202 201 201 201 200 198 201 204 205 206 208 209
283 285 286 284 282 281 281 277 274 270 269 269 269 265 259 253 241 235 228 224 221 218 212 207 208 205 202 200 199 198 201 204 201 199 199 198 198 201 201 203 203 202 205
279 281 283 282 281 283 283 278 275 272 270 268 266 263 258 254 247 238 232 228 223 218 211 207 208 206 201 200 201 201 203 203 200 197 196 196 196 197 198 202 203 202 204
277 278 280 282 282 281 281 279 276 274 272 269 267 264 262 262 261 251 241 230 222 217 211 207 209 209 202 200 202 204 207 202 192 194 195 196 195 196 197 201 204 206 207
276 277 278 279 279 279 280 280 279 276 273 270 268 269 270 270 269 266 256 237 222 217 211 208 207 208 208 207 206 202 203 202 196 190 190 196 197 197 197 200 202 203 205
279 279 280 279 278 277 278 277 278 279 277 277 275 272 272 271 272 272 266 251 232 223 216 211 207 206 207 211 214 213 211 211 208 202 194 195 197 198 197 201 201 204 204